User: anonymous   Login
Location: Altleiningen
(49.5078°N, 8.0741°E)
Time: 02:05:45
(UTC+00:00)
Language:

ARGOS - Orbit

View from above orbital plane
View from above orbital plane
View from above satellite
View from above satellite

Ground track
Ground track

The orbit data is extracted from the following two-line orbital elements,

1 25634U 99008A   21125.68832073 -.00000007  00000-0  16019-4 0  9993
2 25634  98.4228 155.4706 0011308  66.6211 293.6154 14.19393885149687
Epoch (UTC): 05 May 2021 16:31:10
Eccentricity: 0.0011308
inclination: 98.4228°
perigee height: 819 km
apogee height: 835 km
right ascension of ascending node: 155.4706°
argument of perigee: 66.6211°
revolutions per day: 14.19393885
mean anomaly at epoch: 293.6154°
orbit number at epoch: 14968

The dashed part of the orbit path shows where the satellite is in the earth's shadow,  

DLR